Location: Unspecified
(0.0000°N, 0.0000°E)
Time: 19:02:10
(UTC+00:00)

Vanguard 2 Rocket - Pass Details

Date: 21 January 2020
Orbit: 554 x 3327 km, 32.9° (Epoch: 20 February)

Event Time Altitude Azimuth Distance (km) Brightness Sun altitude
Rises 16:05:09 0° 281° (W) 6,877 12.2 29.4°
Reaches altitude 10° 16:10:05 10° 274° (W) 6,076 12.3 28.3°
Maximum altitude 16:27:51 39° 212° (SSW) 4,286 11.4 24.2°
Drops below altitude 10° 16:43:53 10° 149° (SSE) 5,447 10.8 20.5°
Sets 16:48:06 0° 140° (SE) 6,124 10.9 19.5°
